| time (UTC) | temp F | wind direction | speed MPH | gust MPH | rain 1hr in | rain 24hr in | rain mn in | humidity % | barometer mb |
| 20260504192006 | 74 | 92 | 1.0 | 2.0 | 0.00 | 0.20 | 0.20 | 63 | 981.9 |
| 20260504191504 | 74 | 172 | 2.0 | 4.0 | 0.00 | 0.20 | 0.20 | 64 | 982.1 |
| 20260504190959 | 73 | 193 | 2.0 | 7.0 | 0.00 | 0.20 | 0.20 | 67 | 981.8 |
| 20260504190455 | 73 | 219 | 1.0 | 2.0 | 0.00 | 0.20 | 0.20 | 67 | 982.3 |
| 20260504185952 | 73 | 143 | 1.0 | 2.0 | 0.00 | 0.20 | 0.20 | 69 | 982.4 |
| 20260504185449 | 73 | 314 | 2.0 | 6.0 | 0.00 | 0.20 | 0.20 | 65 | 982.4 |
| 20260504184945 | 70 | 171 | 2.0 | 4.0 | 0.00 | 0.20 | 0.20 | 68 | 982.4 |
| 20260504184441 | 65 | 185 | 2.0 | 2.0 | 0.00 | 0.20 | 0.20 | 87 | 982.1 |
| 20260504183937 | 63 | 86 | 0.0 | 0.0 | 0.00 | 0.20 | 0.20 | 91 | 981.7 |
| 20260504183434 | 63 | 92 | 0.0 | 0.0 | 0.00 | 0.20 | 0.20 | 89 | 981.9 |
| 20260504182932 | 62 | 94 | 0.0 | 0.0 | 0.00 | 0.20 | 0.20 | 88 | 982.2 |
| 20260504182429 | 62 | 94 | 0.0 | 1.0 | 0.00 | 0.20 | 0.20 | 88 | 982.8 |
| 20260504181926 | 62 | 125 | 1.0 | 1.0 | 0.00 | 0.20 | 0.20 | 88 | 983.0 |
| 20260504181423 | 62 | 126 | 0.0 | 1.0 | 0.00 | 0.20 | 0.20 | 88 | 983.6 |
| 20260504180922 | 63 | 126 | 0.0 | 0.0 | 0.00 | 0.20 | 0.20 | 88 | 983.3 |
| 20260504180420 | 64 | 126 | 0.0 | 1.0 | 0.00 | 0.20 | 0.20 | 87 | 983.1 |
| 20260504175918 | 64 | 128 | 0.0 | 0.0 | 0.00 | 0.20 | 0.20 | 87 | 983.2 |
| 20260504175415 | 64 | 129 | 0.0 | 0.0 | 0.00 | 0.20 | 0.20 | 89 | 983.0 |
| 20260504174912 | 63 | 129 | 0.0 | 0.0 | 0.00 | 0.20 | 0.20 | 90 | 983.3 |
| 20260504174410 | 63 | 129 | 0.0 | 0.0 | 0.00 | 0.20 | 0.20 | 90 | 983.3 |
| 20260504173907 | 63 | 134 | 0.0 | 0.0 | 0.00 | 0.20 | 0.20 | 89 | 983.1 |
| 20260504173403 | 63 | 135 | 0.0 | 0.0 | 0.00 | 0.20 | 0.20 | 88 | 983.4 |
| 20260504172900 | 62 | 135 | 0.0 | 0.0 | 0.00 | 0.20 | 0.20 | 89 | 983.6 |
| 20260504172357 | 62 | 135 | 0.0 | 0.0 | 0.00 | 0.20 | 0.20 | 91 | 983.8 |
| 20260504171853 | 62 | 135 | 0.0 | 1.0 | 0.00 | 0.20 | 0.20 | 90 | 983.8 |
| 20260504171350 | 62 | 140 | 0.0 | 0.0 | 0.00 | 0.20 | 0.20 | 90 | 984.0 |
| 20260504170847 | 62 | 116 | 0.0 | 0.0 | 0.00 | 0.20 | 0.20 | 89 | 983.7 |
| 20260504170344 | 62 | 116 | 0.0 | 0.0 | 0.00 | 0.20 | 0.20 | 90 | 983.7 |
| 20260504160302 | 58 | 85 | 1.0 | 1.0 | 0.09 | 0.20 | 0.20 | 92 | 984.6 |
| 20260504150728 | 64 | 168 | 0.0 | 0.0 | 0.00 | 0.00 | 0.00 | 62 | 985.6 |
| 20260504150225 | 64 | 168 | 0.0 | 0.0 | 0.00 | 0.00 | 0.00 | 63 | 985.7 |
| 20260504141154 | 66 | 246 | 2.0 | 4.0 | 0.00 | 0.00 | 0.00 | 58 | 985.3 |
| 20260504140650 | 66 | 257 | 2.0 | 3.0 | 0.00 | 0.00 | 0.00 | 58 | 985.3 |
| 20260504140146 | 66 | 239 | 1.0 | 2.0 | 0.00 | 0.00 | 0.00 | 60 | 985.3 |
| 20260504130614 | 58 | 116 | 0.0 | 1.0 | 0.00 | 0.00 | 0.00 | 78 | 985.9 |
| 20260504130111 | 58 | 104 | 0.0 | 0.0 | 0.00 | 0.00 | 0.00 | 79 | 985.8 |
| 20260504110503 | 57 | 105 | 0.0 | 0.0 | 0.00 | 0.00 | 0.00 | 78 | 986.2 |
| 20260504100424 | 57 | 105 | 0.0 | 0.0 | 0.00 | 0.00 | 0.00 | 75 | 986.3 |
| 20260504081817 | 62 | 130 | 0.0 | 0.0 | 0.00 | 0.00 | 0.00 | 60 | 986.3 |
| 20260504081314 | 62 | 129 | 0.0 | 0.0 | 0.00 | 0.00 | 0.00 | 60 | 986.4 |
| 20260504080810 | 62 | 129 | 0.0 | 0.0 | 0.00 | 0.00 | 0.00 | 60 | 986.2 |
| 20260504080308 | 63 | 129 | 0.0 | 0.0 | 0.00 | 0.00 | 0.00 | 59 | 986.1 |
| 20260504070235 | 64 | 141 | 1.0 | 1.0 | 0.00 | 0.00 | 0.00 | 54 | 985.9 |
| 20260504060155 | 65 | 14 | 3.0 | 6.0 | 0.00 | 0.00 | 0.00 | 54 | 986.4 |
| 20260504050623 | 66 | 142 | 1.0 | 1.0 | 0.00 | 0.00 | 0.00 | 53 | 986.3 |
| 20260504050120 | 65 | 354 | 1.0 | 1.0 | 0.00 | 0.00 | 0.00 | 54 | 986.5 |
| 20260504045617 | 66 | 244 | 1.0 | 1.0 | 0.00 | 0.00 | 0.00 | 56 | 986.6 |
| 20260504045112 | 66 | 263 | 0.0 | 2.0 | 0.00 | 0.00 | 0.00 | 54 | 986.5 |
| 20260504044610 | 66 | 171 | 0.0 | 0.0 | 0.00 | 0.00 | 0.00 | 54 | 986.7 |
| 20260504044107 | 66 | 171 | 0.0 | 0.0 | 0.00 | 0.00 | 0.00 | 53 | 986.7 |
| 20260504043604 | 67 | 172 | 0.0 | 0.0 | 0.00 | 0.00 | 0.00 | 53 | 986.8 |
| 20260504043101 | 67 | 172 | 0.0 | 1.0 | 0.00 | 0.00 | 0.00 | 52 | 986.7 |
| 20260504042558 | 67 | 172 | 1.0 | 1.0 | 0.00 | 0.00 | 0.00 | 53 | 986.8 |
| 20260504042055 | 67 | 120 | 0.0 | 0.0 | 0.00 | 0.00 | 0.00 | 53 | 987.1 |
| 20260504041550 | 67 | 120 | 0.0 | 0.0 | 0.00 | 0.00 | 0.00 | 53 | 986.9 |
| 20260504041047 | 67 | 129 | 0.0 | 0.0 | 0.00 | 0.00 | 0.00 | 54 | 987.4 |
| 20260504040545 | 67 | 129 | 0.0 | 1.0 | 0.00 | 0.00 | 0.00 | 52 | 987.3 |
| 20260504040041 | 67 | 118 | 0.0 | 1.0 | 0.00 | 0.00 | 0.00 | 52 | 987.3 |
| 20260504035538 | 67 | 136 | 0.0 | 0.0 | 0.00 | 0.00 | 0.00 | 53 | 986.9 |
| 20260504035034 | 67 | 324 | 1.0 | 1.0 | 0.00 | 0.00 | 0.00 | 52 | 987.0 |
| 20260504034533 | 67 | 152 | 0.0 | 0.0 | 0.00 | 0.00 | 0.00 | 54 | 987.1 |
| 20260504034029 | 67 | 180 | 0.0 | 1.0 | 0.00 | 0.00 | 0.00 | 55 | 987.4 |
| 20260504033527 | 67 | 177 | 0.0 | 0.0 | 0.00 | 0.00 | 0.00 | 54 | 987.3 |
| 20260504033024 | 67 | 179 | 0.0 | 1.0 | 0.00 | 0.00 | 0.00 | 52 | 987.5 |
| 20260504032521 | 67 | 235 | 0.0 | 1.0 | 0.00 | 0.00 | 0.00 | 53 | 987.2 |
| 20260504032018 | 69 | 204 | 1.0 | 2.0 | 0.00 | 0.00 | 0.00 | 53 | 987.0 |
| 20260504031515 | 69 | 193 | 2.0 | 3.0 | 0.00 | 0.00 | 0.00 | 51 | 987.1 |
| 20260504031011 | 69 | 92 | 0.0 | 0.0 | 0.00 | 0.00 | 0.00 | 49 | 988.1 |
| 20260504030508 | 69 | 91 | 0.0 | 0.0 | 0.00 | 0.00 | 0.00 | 47 | 987.9 |
| 20260504030004 | 70 | 91 | 0.0 | 0.0 | 0.00 | 0.00 | 0.00 | 47 | 988.0 |
| 20260504025501 | 70 | 134 | 0.0 | 1.0 | 0.00 | 0.00 | 0.00 | 47 | 987.8 |
| 20260504024958 | 70 | 150 | 0.0 | 0.0 | 0.00 | 0.00 | 0.00 | 47 | 987.5 |
| 20260504024455 | 70 | 149 | 1.0 | 1.0 | 0.00 | 0.00 | 0.00 | 47 | 987.7 |
| 20260504023952 | 70 | 150 | 0.0 | 0.0 | 0.00 | 0.00 | 0.00 | 47 | 987.5 |
| 20260504023449 | 70 | 148 | 0.0 | 0.0 | 0.00 | 0.00 | 0.00 | 45 | 987.4 |
| 20260504022944 | 71 | 148 | 0.0 | 0.0 | 0.00 | 0.00 | 0.00 | 44 | 987.3 |
| 20260504022441 | 71 | 147 | 0.0 | 2.0 | 0.00 | 0.00 | 0.00 | 43 | 987.3 |
| 20260504021937 | 71 | 136 | 0.0 | 0.0 | 0.00 | 0.00 | 0.00 | 43 | 987.1 |
| 20260504021435 | 71 | 151 | 0.0 | 0.0 | 0.00 | 0.00 | 0.00 | 42 | 987.3 |
| 20260504020932 | 71 | 163 | 0.0 | 1.0 | 0.00 | 0.00 | 0.00 | 42 | 987.0 |
| 20260504020428 | 71 | 118 | 0.0 | 1.0 | 0.00 | 0.00 | 0.00 | 42 | 987.2 |
| 20260504015925 | 69 | 118 | 1.0 | 1.0 | 0.00 | 0.00 | 0.00 | 44 | 987.0 |
| 20260504015421 | 69 | 115 | 0.0 | 0.0 | 0.00 | 0.00 | 0.00 | 47 | 987.2 |
| 20260504014917 | 69 | 115 | 0.0 | 0.0 | 0.00 | 0.00 | 0.00 | 46 | 987.1 |
| 20260504014413 | 69 | 115 | 1.0 | 1.0 | 0.00 | 0.00 | 0.00 | 47 | 987.1 |
| 20260504013910 | 72 | 129 | 0.0 | 0.0 | 0.00 | 0.00 | 0.00 | 47 | 987.0 |
| 20260504013409 | 72 | 133 | 0.0 | 0.0 | 0.00 | 0.00 | 0.00 | 42 | 987.0 |
| 20260504012904 | 73 | 133 | 0.0 | 0.0 | 0.00 | 0.00 | 0.00 | 41 | 986.7 |
| 20260504012403 | 73 | 132 | 1.0 | 1.0 | 0.00 | 0.00 | 0.00 | 40 | 986.7 |
| 20260504011900 | 73 | 145 | 1.0 | 1.0 | 0.00 | 0.00 | 0.00 | 39 | 986.8 |
| 20260504011356 | 74 | 144 | 0.0 | 0.0 | 0.00 | 0.00 | 0.00 | 39 | 986.9 |
| 20260504010852 | 74 | 131 | 0.0 | 0.0 | 0.00 | 0.00 | 0.00 | 39 | 986.8 |
| 20260504010348 | 74 | 96 | 2.0 | 2.0 | 0.00 | 0.00 | 0.00 | 38 | 986.8 |
| 20260504005845 | 75 | 145 | 0.0 | 1.0 | 0.00 | 0.00 | 0.00 | 39 | 986.6 |
| 20260504005341 | 75 | 147 | 0.0 | 0.0 | 0.00 | 0.00 | 0.00 | 37 | 986.6 |
| 20260504004839 | 75 | 158 | 0.0 | 3.0 | 0.00 | 0.00 | 0.00 | 37 | 986.7 |
| 20260504004337 | 76 | 144 | 0.0 | 1.0 | 0.00 | 0.00 | 0.00 | 37 | 986.7 |
| 20260504003833 | 76 | 190 | 1.0 | 1.0 | 0.00 | 0.00 | 0.00 | 36 | 986.5 |
| 20260504003330 | 76 | 267 | 1.0 | 1.0 | 0.00 | 0.00 | 0.00 | 36 | 986.6 |
| 20260504002827 | 76 | 180 | 0.0 | 2.0 | 0.00 | 0.00 | 0.00 | 36 | 986.9 |
| 20260504002323 | 76 | 159 | 1.0 | 3.0 | 0.00 | 0.00 | 0.00 | 35 | 986.5 |
| 20260504001821 | 77 | 114 | 2.0 | 3.0 | 0.00 | 0.00 | 0.00 | 34 | 986.5 |
| 20260504001318 | 77 | 163 | 3.0 | 3.0 | 0.00 | 0.00 | 0.00 | 34 | 986.6 |
| 20260504000815 | 78 | 152 | 2.0 | 3.0 | 0.00 | 0.00 | 0.00 | 34 | 986.7 |
| 20260504000312 | 78 | 276 | 2.0 | 3.0 | 0.00 | 0.00 | 0.00 | 34 | 986.5 |
| 20260503235810 | 78 | 181 | 2.0 | 3.0 | 0.00 | 0.00 | 0.00 | 34 | 986.7 |
| 20260503235307 | 78 | 120 | 2.0 | 6.0 | 0.00 | 0.00 | 0.00 | 34 | 986.6 |
| 20260503234805 | 78 | 280 | 5.0 | 7.0 | 0.00 | 0.00 | 0.00 | 32 | 986.9 |
| 20260503234303 | 79 | 129 | 2.0 | 6.0 | 0.00 | 0.00 | 0.00 | 33 | 986.8 |
| 20260503233800 | 79 | 258 | 3.0 | 4.0 | 0.00 | 0.00 | 0.00 | 32 | 986.7 |
| 20260503233255 | 80 | 256 | 0.0 | 4.0 | 0.00 | 0.00 | 0.00 | 32 | 986.8 |
| 20260503232752 | 80 | 112 | 1.0 | 3.0 | 0.00 | 0.00 | 0.00 | 32 | 986.8 |
| 20260503232250 | 81 | 133 | 2.0 | 4.0 | 0.00 | 0.00 | 0.00 | 32 | 986.8 |
| 20260503231748 | 81 | 189 | 4.0 | 6.0 | 0.00 | 0.00 | 0.00 | 30 | 986.9 |
| 20260503231245 | 81 | 153 | 4.0 | 6.0 | 0.00 | 0.00 | 0.00 | 30 | 986.8 |
| 20260503230740 | 80 | 267 | 4.0 | 8.0 | 0.00 | 0.00 | 0.00 | 30 | 986.9 |
| 20260503230238 | 80 | 89 | 7.0 | 11.0 | 0.00 | 0.00 | 0.00 | 30 | 987.1 |
| 20260503225735 | 81 | 240 | 1.0 | 10.0 | 0.00 | 0.00 | 0.00 | 31 | 986.8 |
| 20260503225235 | 81 | 124 | 2.0 | 6.0 | 0.00 | 0.00 | 0.00 | 31 | 987.0 |
| 20260503224732 | 82 | 193 | 3.0 | 4.0 | 0.00 | 0.00 | 0.00 | 32 | 987.0 |
| 20260503224230 | 81 | 258 | 1.0 | 3.0 | 0.00 | 0.00 | 0.00 | 31 | 987.0 |
| 20260503223727 | 81 | 188 | 5.0 | 9.0 | 0.00 | 0.00 | 0.00 | 30 | 987.0 |
| 20260503223225 | 81 | 271 | 2.0 | 6.0 | 0.00 | 0.00 | 0.00 | 32 | 987.3 |
| 20260503222721 | 81 | 42 | 2.0 | 7.0 | 0.00 | 0.00 | 0.00 | 30 | 987.2 |
| 20260503222219 | 81 | 122 | 5.0 | 8.0 | 0.00 | 0.00 | 0.00 | 29 | 987.2 |
| 20260503221717 | 81 | 196 | 2.0 | 6.0 | 0.00 | 0.00 | 0.00 | 30 | 987.3 |
| 20260503221215 | 81 | 169 | 4.0 | 4.0 | 0.00 | 0.00 | 0.00 | 29 | 987.3 |
| 20260503220711 | 81 | 280 | 3.0 | 7.0 | 0.00 | 0.00 | 0.00 | 29 | 987.3 |
| 20260503220208 | 81 | 255 | 3.0 | 6.0 | 0.00 | 0.00 | 0.00 | 31 | 987.4 |
| 20260503215705 | 81 | 110 | 2.0 | 3.0 | 0.00 | 0.00 | 0.00 | 31 | 987.4 |
| 20260503215201 | 81 | 287 | 2.0 | 4.0 | 0.00 | 0.00 | 0.00 | 30 | 987.7 |
| 20260503214700 | 81 | 217 | 4.0 | 8.0 | 0.00 | 0.00 | 0.00 | 28 | 987.6 |
| 20260503214155 | 81 | 198 | 2.0 | 8.0 | 0.00 | 0.00 | 0.00 | 29 | 987.5 |
| 20260503213655 | 80 | 226 | 3.0 | 4.0 | 0.00 | 0.00 | 0.00 | 29 | 987.6 |
| 20260503213151 | 80 | 156 | 4.0 | 8.0 | 0.00 | 0.00 | 0.00 | 29 | 987.7 |
| 20260503212649 | 80 | 273 | 3.0 | 7.0 | 0.00 | 0.00 | 0.00 | 29 | 987.6 |
| 20260503212146 | 80 | 96 | 5.0 | 11.0 | 0.00 | 0.00 | 0.00 | 28 | 987.8 |
| 20260503211644 | 79 | 133 | 4.0 | 11.0 | 0.00 | 0.00 | 0.00 | 28 | 987.7 |
| 20260503211139 | 80 | 223 | 6.0 | 8.0 | 0.00 | 0.00 | 0.00 | 29 | 987.9 |
| 20260503210635 | 80 | 350 | 4.0 | 10.0 | 0.00 | 0.00 | 0.00 | 28 | 988.0 |
| 20260503210132 | 80 | 71 | 2.0 | 8.0 | 0.00 | 0.00 | 0.00 | 30 | 988.0 |
| 20260503205628 | 79 | 260 | 3.0 | 8.0 | 0.00 | 0.00 | 0.00 | 31 | 988.1 |
| 20260503205124 | 79 | 185 | 3.0 | 8.0 | 0.00 | 0.00 | 0.00 | 30 | 988.2 |
| 20260503204621 | 80 | 183 | 5.0 | 8.0 | 0.00 | 0.00 | 0.00 | 28 | 988.3 |
| 20260503204119 | 79 | 169 | 1.0 | 6.0 | 0.00 | 0.00 | 0.00 | 32 | 988.5 |
| 20260503203616 | 78 | 272 | 3.0 | 3.0 | 0.00 | 0.00 | 0.00 | 32 | 988.5 |
| 20260503203113 | 78 | 94 | 4.0 | 9.0 | 0.00 | 0.00 | 0.00 | 30 | 988.3 |
| 20260503202610 | 78 | 275 | 7.0 | 13.0 | 0.00 | 0.00 | 0.00 | 28 | 988.3 |
| 20260503202108 | 79 | 298 | 2.0 | 8.0 | 0.00 | 0.00 | 0.00 | 31 | 988.6 |
| 20260503201606 | 78 | 203 | 2.0 | 7.0 | 0.00 | 0.00 | 0.00 | 30 | 988.6 |
| 20260503201103 | 78 | 267 | 2.0 | 9.0 | 0.00 | 0.00 | 0.00 | 31 | 988.8 |
| 20260503200559 | 78 | 79 | 6.0 | 8.0 | 0.00 | 0.00 | 0.00 | 30 | 989.1 |
| 20260503200056 | 77 | 286 | 4.0 | 9.0 | 0.00 | 0.00 | 0.00 | 29 | 989.2 |
| 20260503195553 | 77 | 293 | 2.0 | 6.0 | 0.00 | 0.00 | 0.00 | 31 | 989.1 |
| 20260503195050 | 76 | 153 | 8.0 | 10.0 | 0.00 | 0.00 | 0.00 | 30 | 989.2 |
| 20260503194547 | 77 | 195 | 3.0 | 8.0 | 0.00 | 0.00 | 0.00 | 32 | 989.8 |
| 20260503194047 | 76 | 279 | 5.0 | 9.0 | 0.00 | 0.00 | 0.00 | 30 | 989.6 |
| 20260503193544 | 76 | 197 | 4.0 | 16.0 | 0.00 | 0.00 | 0.00 | 32 | 989.8 |
| 20260503193039 | 76 | 203 | 8.0 | 13.0 | 0.00 | 0.00 | 0.00 | 30 | 989.9 |
| 20260503192535 | 76 | 279 | 4.0 | 8.0 | 0.00 | 0.00 | 0.00 | 30 | 990.2 |